FW0153 Weather Reports


time (UTC)temp
F
wind
direction
speed
knots
gust
knots
rain 1hr
in
rain 24hr
in
rain mn
in
humidity
%
barometer
mb
20260901010005 85 45 7.8 0.0 0.00 0.00 0.00 52 1010.6
20260901005713 85 28 27.8 0.0 0.00 0.00 0.00 51 1010.6
20260901005005 85 64 11.3 0.0 0.00 0.00 0.00 51 1010.6
20260901004504 85 55 7.8 0.0 0.00 0.00 0.00 50 1010.3
20260901004005 86 49 7.8 0.0 0.00 0.00 0.00 49 1010.3
20260901003505 86 40 15.6 0.0 0.00 0.00 0.00 48 1010.3
20260901003005 86 201 11.3 0.0 0.00 0.00 0.00 49 1010.3
20260901002505 86 75 11.3 0.0 0.00 0.00 0.00 48 1010.3
20260901002005 86 12 7.8 0.0 0.00 0.00 0.00 47 1009.9
20260901001505 87 193 11.3 0.0 0.00 0.00 0.00 46 1009.9
20260901001004 87 109 15.6 0.0 0.00 0.00 0.00 45 1010.3
20260901000713 87 99 11.3 0.0 0.00 0.00 0.00 45 1009.9
20260901000005 88 261 11.3 0.0 0.00 0.00 0.00 44 1009.6
20260831235505 88 2 11.3 0.0 0.00 0.00 0.00 44 1009.6
20260831235211 88 112 20.0 0.0 0.00 0.00 0.00 43 1009.6
20260831234505 89 340 20.0 0.0 0.00 0.00 0.00 43 1009.6
20260831234005 89 42 20.0 0.0 0.00 0.00 0.00 42 1009.6
20260831233505 89 110 0.0 0.0 0.00 0.00 0.00 41 1009.6
20260831233213 89 348 11.3 0.0 0.00 0.00 0.00 40 1009.6
20260831232505 89 91 11.3 0.0 0.00 0.00 0.00 40 1009.6
20260831232211 90 96 23.5 0.0 0.00 0.00 0.00 40 1009.6
20260831231505 90 67 3.5 0.0 0.00 0.00 0.00 40 1009.6
20260831231005 90 44 7.8 0.0 0.00 0.00 0.00 40 1009.6
20260831230505 90 77 15.6 0.0 0.00 0.00 0.00 40 1009.6
20260831230213 91 50 7.8 0.0 0.00 0.00 0.00 40 1009.3
20260831225505 91 60 20.0 0.0 0.00 0.00 0.00 39 1009.3
20260831225211 92 51 20.0 0.0 0.00 0.00 0.00 37 1009.6
20260831224505 92 140 0.0 0.0 0.00 0.00 0.00 36 1009.6
20260831224005 92 131 11.3 0.0 0.00 0.00 0.00 36 1009.6
20260831223505 92 138 11.3 0.0 0.00 0.00 0.00 35 1009.6
20260831223213 92 80 3.5 0.0 0.00 0.00 0.00 34 1009.6
20260831222505 92 49 35.6 0.0 0.00 0.00 0.00 33 1009.6
20260831222005 93 108 15.6 0.0 0.00 0.00 0.00 33 1009.3
20260831221504 93 158 3.5 0.0 0.00 0.00 0.00 30 1009.6
20260831221005 94 131 23.5 0.0 0.00 0.00 0.00 30 1009.6
20260831220505 93 107 11.3 0.0 0.00 0.00 0.00 30 1009.6
20260831220213 94 144 11.3 0.0 0.00 0.00 0.00 30 1009.6
20260831215505 93 77 15.6 0.0 0.00 0.00 0.00 31 1009.6
20260831215213 93 86 3.5 0.0 0.00 0.00 0.00 32 1009.6
20260831214504 94 74 3.5 0.0 0.00 0.00 0.00 31 1009.6
20260831214213 94 45 3.5 0.0 0.00 0.00 0.00 31 1009.6
20260831213505 93 52 0.0 0.0 0.00 0.00 0.00 32 1009.6
20260831213005 94 24 11.3 0.0 0.00 0.00 0.00 31 1009.9
20260831212505 94 139 3.5 0.0 0.00 0.00 0.00 32 1009.6
20260831212005 94 82 11.3 0.0 0.00 0.00 0.00 32 1009.9
20260831211505 94 85 7.8 0.0 0.00 0.00 0.00 32 1009.9
20260831211004 94 158 3.5 0.0 0.00 0.00 0.00 32 1009.9
20260831210505 94 115 7.8 0.0 0.00 0.00 0.00 32 1010.3
20260831210005 93 90 11.3 0.0 0.00 0.00 0.00 33 1009.9
20260831205505 93 101 7.8 0.0 0.00 0.00 0.00 34 1009.9
20260831205005 93 45 7.8 0.0 0.00 0.00 0.00 34 1010.3
20260831204505 93 79 11.3 0.0 0.00 0.00 0.00 34 1010.3
20260831204212 94 36 11.3 0.0 0.00 0.00 0.00 33 1010.3
20260831203505 94 32 7.8 0.0 0.00 0.00 0.00 33 1010.6
20260831203212 95 131 11.3 0.0 0.00 0.00 0.00 32 1010.6
20260831202505 95 1 7.8 0.0 0.00 0.00 0.00 31 1010.6
20260831202005 95 49 3.5 0.0 0.00 0.00 0.00 29 1010.6
20260831201505 94 49 11.3 0.0 0.00 0.00 0.00 29 1010.6
20260831201005 94 57 11.3 0.0 0.00 0.00 0.00 29 1011.0
20260831200505 95 76 7.8 0.0 0.00 0.00 0.00 29 1011.0
20260831200005 94 169 11.3 0.0 0.00 0.00 0.00 30 1011.0
20260831195505 94 128 7.8 0.0 0.00 0.00 0.00 31 1011.0
20260831195005 95 41 11.3 0.0 0.00 0.00 0.00 31 1011.0
20260831194505 95 52 7.8 0.0 0.00 0.00 0.00 32 1011.0
20260831194005 95 158 3.5 0.0 0.00 0.00 0.00 33 1011.3
20260831193505 93 76 3.5 0.0 0.00 0.00 0.00 34 1011.3
20260831193212 93 128 11.3 0.0 0.00 0.00 0.00 33 1011.3
20260831192505 94 338 11.3 0.0 0.00 0.00 0.00 33 1011.3
20260831192004 95 100 7.8 0.0 0.00 0.00 0.00 34 1011.6
20260831191505 93 141 7.8 0.0 0.00 0.00 0.00 33 1011.6
20260831191005 93 82 7.8 0.0 0.00 0.00 0.00 34 1011.6
20260831190713 93 60 20.0 0.0 0.00 0.00 0.00 34 1011.6
20260831190005 94 177 15.6 0.0 0.00 0.00 0.00 34 1011.6
20260831185505 93 152 7.8 0.0 0.00 0.00 0.00 34 1011.6
20260831185005 94 50 23.5 0.0 0.00 0.00 0.00 33 1011.6
20260831184505 93 100 11.3 0.0 0.00 0.00 0.00 32 1012.0
20260831184004 92 50 11.3 0.0 0.00 0.00 0.00 35 1012.0
20260831183505 93 142 23.5 0.0 0.00 0.00 0.00 34 1012.0
20260831183005 93 86 11.3 0.0 0.00 0.00 0.00 36 1012.0
20260831182505 92 61 3.5 0.0 0.00 0.00 0.00 36 1012.0
20260831182005 92 192 15.6 0.0 0.00 0.00 0.00 36 1012.0
20260831181505 92 152 3.5 0.0 0.00 0.00 0.00 37 1012.3
20260831181005 92 181 11.3 0.0 0.00 0.00 0.00 37 1012.3
20260831180712 92 33 11.3 0.0 0.00 0.00 0.00 37 1012.3
20260831180005 92 153 7.8 0.0 0.00 0.00 0.00 37 1012.3
20260831175505 91 2 7.8 0.0 0.00 0.00 0.00 38 1012.3
20260831175005 91 156 7.8 0.0 0.00 0.00 0.00 41 1012.7
20260831174712 91 102 7.8 0.0 0.00 0.00 0.00 39 1012.7
20260831174004 92 93 7.8 0.0 0.00 0.00 0.00 39 1012.7
20260831173505 90 87 7.8 0.0 0.00 0.00 0.00 41 1012.7
20260831173005 91 28 7.8 0.0 0.00 0.00 0.00 40 1012.7
20260831172505 90 113 7.8 0.0 0.00 0.00 0.00 41 1012.7
20260831172005 90 34 3.5 0.0 0.00 0.00 0.00 40 1013.0
20260831171505 90 70 3.5 0.0 0.00 0.00 0.00 42 1013.0
20260831171005 90 96 3.5 0.0 0.00 0.00 0.00 43 1013.0
20260831170506 89 19 3.5 0.0 0.00 0.00 0.00 44 1012.7
20260831170005 90 106 3.5 0.0 0.00 0.00 0.00 43 1013.3
20260831165505 89 175 11.3 0.0 0.00 0.00 0.00 43 1013.0
20260831165005 89 201 11.3 0.0 0.00 0.00 0.00 44 1013.0
20260831164712 89 58 7.8 0.0 0.00 0.00 0.00 45 1013.0
20260831164213 88 143 11.3 0.0 0.00 0.00 0.00 48 1013.0
20260831163712 88 175 7.8 0.0 0.00 0.00 0.00 47 1013.0
20260831163005 88 148 7.8 0.0 0.00 0.00 0.00 50 1013.0
20260831162505 88 136 11.3 0.0 0.00 0.00 0.00 49 1013.3
20260831162005 88 118 11.3 0.0 0.00 0.00 0.00 50 1013.3
20260831161505 87 164 11.3 0.0 0.00 0.00 0.00 53 1013.0
20260831161004 87 106 7.8 0.0 0.00 0.00 0.00 52 1013.3
20260831160505 87 62 11.3 0.0 0.00 0.00 0.00 52 1013.3
20260831160005 87 144 3.5 0.0 0.00 0.00 0.00 52 1013.0
20260831155505 86 244 11.3 0.0 0.00 0.00 0.00 55 1013.3
20260831155005 86 233 11.3 0.0 0.00 0.00 0.00 57 1013.3
20260831154505 86 110 11.3 0.0 0.00 0.00 0.00 58 1013.3
20260831154005 85 121 3.5 0.0 0.00 0.00 0.00 59 1013.3
20260831153505 85 75 11.3 0.0 0.00 0.00 0.00 59 1013.3
20260831153004 85 146 3.5 0.0 0.00 0.00 0.00 61 1013.3
20260831152505 84 184 11.3 0.0 0.00 0.00 0.00 61 1013.3
20260831152005 84 144 15.6 0.0 0.00 0.00 0.00 61 1013.3
20260831151505 85 120 7.8 0.0 0.00 0.00 0.00 61 1013.3
20260831151005 85 270 7.8 0.0 0.00 0.00 0.00 62 1013.3
20260831150711 85 136 3.5 0.0 0.00 0.00 0.00 63 1013.3
20260831150005 83 169 11.3 0.0 0.00 0.00 0.00 64 1013.3
20260831145505 83 107 11.3 0.0 0.00 0.00 0.00 67 1013.3
20260831145212 83 175 11.3 0.0 0.00 0.00 0.00 67 1013.3
20260831144505 83 157 11.3 0.0 0.00 0.00 0.00 68 1013.3
20260831144005 82 61 0.0 0.0 0.00 0.00 0.00 71 1013.3
20260831143713 82 143 23.5 0.0 0.00 0.00 0.00 71 1013.3
20260831143005 82 175 7.8 0.0 0.00 0.00 0.00 73 1013.3
20260831142505 82 139 7.8 0.0 0.00 0.00 0.00 73 1013.3
20260831142005 82 179 11.3 0.0 0.00 0.00 0.00 74 1013.3
20260831141504 82 107 11.3 0.0 0.00 0.00 0.00 73 1013.7
20260831141005 81 158 3.5 0.0 0.00 0.00 0.00 75 1013.3
20260831140713 81 91 15.6 0.0 0.00 0.00 0.00 76 1013.3
20260831140005 81 64 11.3 0.0 0.00 0.00 0.00 76 1013.0
20260831135505 80 89 11.3 0.0 0.00 0.00 0.00 77 1013.3
20260831135005 80 150 7.8 0.0 0.00 0.00 0.00 78 1013.0
20260831134505 80 173 7.8 0.0 0.00 0.00 0.00 79 1013.3
20260831134004 80 36 7.8 0.0 0.00 0.00 0.00 81 1013.0
20260831133713 79 117 0.0 0.0 0.00 0.00 0.00 82 1013.0
20260831133005 79 62 7.8 0.0 0.00 0.00 0.00 82 1013.0
20260831132505 79 114 0.0 0.0 0.00 0.00 0.00 83 1013.0
20260831132005 78 123 3.5 0.0 0.00 0.00 0.00 84 1013.0
20260831131505 78 86 3.5 0.0 0.00 0.00 0.00 84 1012.7
20260831131005 78 104 3.5 0.0 0.00 0.00 0.00 85 1013.0
20260831130505 77 88 3.5 0.0 0.00 0.00 0.00 85 1012.7
20260831130005 77 116 0.0 0.0 0.00 0.00 0.00 86 1012.7
20260831125505 77 133 3.5 0.0 0.00 0.00 0.00 86 1012.7
20260831125211 77 109 0.0 0.0 0.00 0.00 0.00 86 1012.7
20260831124505 77 107 3.5 0.0 0.00 0.00 0.00 87 1012.7
20260831124005 77 139 0.0 0.0 0.00 0.00 0.00 87 1012.7
20260831123505 77 139 0.0 0.0 0.00 0.00 0.00 87 1012.3
20260831123213 77 91 0.0 0.0 0.00 0.00 0.00 87 1012.3
20260831122712 77 115 0.0 0.0 0.00 0.00 0.00 87 1012.3
20260831122005 77 108 3.5 0.0 0.00 0.00 0.00 87 1012.3
20260831121712 77 104 0.0 0.0 0.00 0.00 0.00 87 1012.0
20260831121005 77 56 7.8 0.0 0.00 0.00 0.00 87 1012.3
20260831120505 77 136 0.0 0.0 0.00 0.00 0.00 87 1012.0
20260831120004 77 119 0.0 0.0 0.00 0.00 0.00 86 1012.0
20260831115505 77 102 0.0 0.0 0.00 0.00 0.00 86 1012.0
20260831115005 77 111 0.0 0.0 0.00 0.00 0.00 86 1011.6
20260831114712 77 135 0.0 0.0 0.00 0.00 0.00 86 1012.0
20260831114005 77 123 0.0 0.0 0.00 0.00 0.00 86 1011.6
20260831113505 77 137 3.5 0.0 0.00 0.00 0.00 86 1012.0
20260831113213 77 116 3.5 0.0 0.00 0.00 0.00 85 1011.6
20260831112505 77 111 0.0 0.0 0.00 0.00 0.00 85 1011.6
20260831112213 77 107 0.0 0.0 0.00 0.00 0.00 85 1012.0
20260831111504 78 60 0.0 0.0 0.00 0.00 0.00 84 1012.3
20260831111004 78 105 0.0 0.0 0.00 0.00 0.00 84 1012.0
20260831110712 78 106 7.8 0.0 0.00 0.00 0.00 84 1012.0
20260831110005 78 131 0.0 0.0 0.00 0.00 0.00 83 1012.0
20260831105505 78 119 0.0 0.0 0.00 0.00 0.00 83 1012.0
20260831105005 78 111 0.0 0.0 0.00 0.00 0.00 83 1011.6
20260831104505 78 84 0.0 0.0 0.00 0.00 0.00 83 1012.0
20260831104004 78 127 0.0 0.0 0.00 0.00 0.00 83 1012.0
20260831103505 78 95 0.0 0.0 0.00 0.00 0.00 82 1012.0
20260831103005 78 72 7.8 0.0 0.00 0.00 0.00 82 1011.6
20260831102505 78 142 7.8 0.0 0.00 0.00 0.00 82 1011.6
20260831102005 78 84 7.8 0.0 0.00 0.00 0.00 82 1011.6
20260831101505 78 118 3.5 0.0 0.00 0.00 0.00 82 1012.0
20260831101005 78 153 3.5 0.0 0.00 0.00 0.00 82 1012.0
20260831100505 79 139 3.5 0.0 0.00 0.00 0.00 82 1012.0
20260831100005 79 149 7.8 0.0 0.00 0.00 0.00 82 1012.0
20260831095504 79 149 7.8 0.0 0.00 0.00 0.00 82 1012.0
20260831095005 79 118 0.0 0.0 0.00 0.00 0.00 82 1012.0
20260831094505 79 121 3.5 0.0 0.00 0.00 0.00 82 1012.0
20260831094005 79 59 7.8 0.0 0.00 0.00 0.00 82 1012.0
20260831093505 79 120 3.5 0.0 0.00 0.00 0.00 82 1011.6
20260831093212 79 134 0.0 0.0 0.00 0.00 0.00 82 1011.6
20260831092505 79 170 7.8 0.0 0.00 0.00 0.00 82 1012.0
20260831092005 79 154 3.5 0.0 0.00 0.00 0.00 82 1011.6
20260831091713 79 147 3.5 0.0 0.00 0.00 0.00 81 1011.6
20260831091004 79 167 7.8 0.0 0.00 0.00 0.00 81 1011.6
20260831090505 79 121 11.3 0.0 0.00 0.00 0.00 81 1011.6
20260831090005 79 117 0.0 0.0 0.00 0.00 0.00 81 1012.3
20260831085713 79 96 0.0 0.0 0.00 0.00 0.00 81 1012.0
20260831085212 79 43 7.8 0.0 0.00 0.00 0.00 81 1012.0
20260831084505 80 126 3.5 0.0 0.00 0.00 0.00 80 1012.0
20260831084005 80 97 11.3 0.0 0.00 0.00 0.00 80 1012.3
20260831083713 80 154 7.8 0.0 0.00 0.00 0.00 80 1012.3
20260831083212 80 91 7.8 0.0 0.00 0.00 0.00 80 1012.3
20260831082505 80 50 20.0 0.0 0.00 0.00 0.00 79 1012.0
20260831082005 80 183 15.6 0.0 0.00 0.00 0.00 79 1012.3
20260831081504 80 167 20.0 0.0 0.00 0.00 0.00 80 1012.0
20260831081005 80 87 0.0 0.0 0.00 0.00 0.00 80 1012.0
20260831080713 80 168 23.5 0.0 0.00 0.00 0.00 80 1012.3
20260831080213 80 169 3.5 0.0 0.00 0.00 0.00 80 1012.3
20260831075712 80 117 0.0 0.0 0.00 0.00 0.00 81 1012.3
20260831075005 80 129 0.0 0.0 0.00 0.00 0.00 81 1012.3
20260831074504 80 85 0.0 0.0 0.00 0.00 0.00 81 1012.3
20260831074005 80 104 0.0 0.0 0.00 0.00 0.00 81 1012.3
20260831073505 80 144 3.5 0.0 0.00 0.00 0.00 81 1012.3
20260831073005 80 156 7.8 0.0 0.00 0.00 0.00 81 1012.3
20260831072505 80 170 7.8 0.0 0.00 0.00 0.00 81 1012.7
20260831072005 80 137 0.0 0.0 0.00 0.00 0.00 81 1012.3
20260831071505 80 175 3.5 0.0 0.00 0.00 0.00 81 1012.3
20260831071005 80 36 7.8 0.0 0.00 0.00 0.00 81 1012.7
20260831070505 80 83 3.5 0.0 0.00 0.00 0.00 81 1012.7
20260831070005 80 118 0.0 0.0 0.00 0.00 0.00 81 1012.7
20260831065505 80 117 3.5 0.0 0.00 0.00 0.00 81 1013.0
20260831065005 80 92 3.5 0.0 0.00 0.00 0.00 81 1013.0
20260831064505 80 152 3.5 0.0 0.00 0.00 0.00 81 1013.0
20260831064005 80 44 3.5 0.0 0.00 0.00 0.00 81 1013.0
20260831063505 80 129 7.8 0.0 0.00 0.00 0.00 81 1012.7
20260831063005 80 153 3.5 0.0 0.00 0.00 0.00 81 1013.0
20260831062712 80 58 7.8 0.0 0.00 0.00 0.00 80 1013.3
20260831062213 80 120 3.5 0.0 0.00 0.00 0.00 80 1013.0
20260831061504 80 105 3.5 0.0 0.00 0.00 0.00 80 1013.0
20260831061005 80 134 3.5 0.0 0.00 0.00 0.00 80 1013.0
20260831060712 80 29 0.0 0.0 0.00 0.00 0.00 80 1012.7
20260831060005 80 178 11.3 0.0 0.00 0.00 0.00 80 1013.0
20260831055712 80 66 0.0 0.0 0.00 0.00 0.00 80 1013.0
20260831055005 80 108 3.5 0.0 0.00 0.00 0.00 79 1013.0
20260831054505 80 82 3.5 0.0 0.00 0.00 0.00 79 1013.0
20260831054005 80 177 11.3 0.0 0.00 0.00 0.00 79 1012.7
20260831053505 80 88 0.0 0.0 0.00 0.00 0.00 79 1013.0
20260831053005 80 107 0.0 0.0 0.00 0.00 0.00 79 1013.0
20260831052711 80 63 11.3 0.0 0.00 0.00 0.00 79 1013.0
20260831052215 80 121 11.3 0.0 0.00 0.00 0.00 78 1013.0
20260831051712 80 111 3.5 0.0 0.00 0.00 0.00 78 1013.0
20260831051005 80 81 3.5 0.0 0.00 0.00 0.00 78 1013.3
20260831050505 80 69 0.0 0.0 0.00 0.00 0.00 78 1013.0
20260831045505 80 134 0.0 0.0 0.00 0.00 0.00 77 1013.0
20260831045004 80 38 15.6 0.0 0.00 0.00 0.00 77 1013.3
20260831044505 80 115 7.8 0.0 0.00 0.00 0.00 77 1013.3
20260831044005 80 77 7.8 0.0 0.00 0.00 0.00 77 1013.0
20260831043505 80 65 20.0 0.0 0.00 0.00 0.00 77 1013.3
20260831043005 80 162 11.3 0.0 0.00 0.00 0.00 77 1013.3
20260831042505 80 109 15.6 0.0 0.00 0.00 0.00 76 1013.3
20260831042212 80 64 15.6 0.0 0.00 0.00 0.00 76 1013.3
20260831041711 80 65 7.8 0.0 0.00 0.00 0.00 76 1013.0
20260831040505 80 36 11.3 0.0 0.00 0.00 0.00 75 1012.7
20260831040005 80 65 20.0 0.0 0.00 0.00 0.00 74 1012.7
20260831035505 80 60 3.5 0.0 0.00 0.00 0.00 73 1012.7
20260831035212 81 294 7.8 0.0 0.00 0.00 0.00 73 1012.3
20260831034505 81 63 7.8 0.0 0.00 0.00 0.00 72 1012.7
20260831034005 81 104 11.3 0.0 0.00 0.00 0.00 71 1012.7
20260831033505 81 147 3.5 0.0 0.00 0.00 0.00 71 1012.3
20260831033005 81 66 3.5 0.0 0.00 0.00 0.00 71 1012.3
20260831032505 81 127 7.8 0.0 0.00 0.00 0.00 71 1012.3
20260831032004 81 307 11.3 0.0 0.00 0.00 0.00 70 1012.3
20260831031505 81 110 7.8 0.0 0.00 0.00 0.00 69 1012.0
20260831031212 81 95 7.8 0.0 0.00 0.00 0.00 69 1012.0
20260831030505 81 79 15.6 0.0 0.00 0.00 0.00 69 1012.3
20260831030005 82 185 11.3 0.0 0.00 0.00 0.00 69 1012.0
20260831025505 82 73 11.3 0.0 0.00 0.00 0.00 68 1012.0
20260831025005 82 84 15.6 0.0 0.00 0.00 0.00 68 1011.6
20260831024505 82 28 3.5 0.0 0.00 0.00 0.00 67 1011.6
20260831023504 82 79 11.3 0.0 0.00 0.00 0.00 65 1011.6
20260831023005 82 62 3.5 0.0 0.00 0.00 0.00 65 1011.3
20260831022505 83 101 7.8 0.0 0.00 0.00 0.00 65 1011.3
20260831022005 83 32 20.0 0.0 0.00 0.00 0.00 64 1011.3
20260831021505 83 86 0.0 0.0 0.00 0.00 0.00 63 1011.3
20260831021005 83 108 11.3 0.0 0.00 0.00 0.00 63 1011.3
20260831020712 83 86 7.8 0.0 0.00 0.00 0.00 62 1011.0
20260831020005 83 80 7.8 0.0 0.00 0.00 0.00 62 1011.0
20260831015505 83 23 7.8 0.0 0.00 0.00 0.00 61 1011.0
20260831015211 83 105 11.3 0.0 0.00 0.00 0.00 60 1010.6
20260831014505 83 122 7.8 0.0 0.00 0.00 0.00 59 1010.6
20260831014005 84 104 20.0 0.0 0.00 0.00 0.00 59 1010.6
20260831013712 84 28 20.0 0.0 0.00 0.00 0.00 59 1011.0
20260831013005 84 79 3.5 0.0 0.00 0.00 0.00 58 1010.6
20260831012504 84 19 7.8 0.0 0.00 0.00 0.00 58 1010.6
20260831012213 84 105 7.8 0.0 0.00 0.00 0.00 58 1010.6
20260831011505 85 94 23.5 0.0 0.00 0.00 0.00 57 1010.6
20260831011005 85 24 20.0 0.0 0.00 0.00 0.00 58 1010.6
20260831010712 85 121 3.5 0.0 0.00 0.00 0.00 57 1010.6